• In Lithuania
  • List of Countries
  • For 7 days
  • Water Temperature
  • Satellite Maps
  • Weather Map
  • Weather Widgets
  • user-avatar
    Login

    Hourly Weather Cam Ranh

    Today, 18 November, Saturday

    Time Temperature Precipitation Wind Pressure Humidity
    00:00 +27°C° 0 mm 4 mps 752 mmHg 95%
    01:00 +26°C° 0 mm 3 mps 752 mmHg 95%
    02:00 +26°C° 0 mm 3 mps 751 mmHg 94%
    03:00 +26°C° 0 mm 3 mps 751 mmHg 93%
    04:00 +26°C° 0 mm 3 mps 751 mmHg 92%
    05:00 +26°C° 0 mm 3 mps 751 mmHg 88%
    06:00 +27°C° 0 mm 3 mps 752 mmHg 85%
    07:00 +28°C° 0 mm 3 mps 752 mmHg 77%
    08:00 +30°C° 0 mm 3 mps 752 mmHg 69%
    09:00 +33°C° 0 mm 3 mps 752 mmHg 60%
    10:00 +35°C° 0 mm 2 mps 752 mmHg 51%
    11:00 +35°C° 0 mm 3 mps 751 mmHg 53%
    12:00 +35°C° 0 mm 4 mps 751 mmHg 55%
    13:00 +34°C° 0 mm 5 mps 751 mmHg 59%
    14:00 +33°C° 0 mm 5 mps 751 mmHg 66%
    15:00 +32°C° 0 mm 5 mps 750 mmHg 73%
    16:00 +30°C° 0 mm 6 mps 750 mmHg 79%
    17:00 +29°C° 0.2 mm 5 mps 751 mmHg 82%
    18:00 +28°C° 0.2 mm 5 mps 751 mmHg 85%
    19:00 +27°C° 0.2 mm 5 mps 751 mmHg 88%
    20:00 +27°C° 2.6 mm 5 mps 751 mmHg 90%
    21:00 +27°C° 2.6 mm 5 mps 751 mmHg 91%
    22:00 +26°C° 2.6 mm 5 mps 752 mmHg 92%
    23:00 +26°C° 1.6 mm 5 mps 751 mmHg 92%

    Tomorrow, 19 November, Sunday

    Time Temperature Precipitation Wind Pressure Humidity
    00:00 +26°C° 1.6 mm 6 mps 751 mmHg 91%
    01:00 +26°C° 1.6 mm 6 mps 751 mmHg 91%
    02:00 +26°C° 4.3 mm 6 mps 750 mmHg 92%
    03:00 +26°C° 4.3 mm 6 mps 750 mmHg 94%
    04:00 +26°C° 4.3 mm 7 mps 750 mmHg 96%
    05:00 +26°C° 2.6 mm 7 mps 750 mmHg 96%
    06:00 +26°C° 2.6 mm 7 mps 750 mmHg 96%
    07:00 +27°C° 2.6 mm 7 mps 751 mmHg 96%
    08:00 +27°C° 1.3 mm 7 mps 751 mmHg 96%
    09:00 +27°C° 1.3 mm 7 mps 751 mmHg 95%
    10:00 +28°C° 1.3 mm 7 mps 752 mmHg 95%
    11:00 +28°C° 1 mm 6 mps 751 mmHg 95%
    12:00 +28°C° 1 mm 6 mps 751 mmHg 95%
    13:00 +28°C° 1 mm 6 mps 751 mmHg 95%
    14:00 +27°C° 1.2 mm 5 mps 750 mmHg 96%
    15:00 +27°C° 1.2 mm 5 mps 750 mmHg 96%
    16:00 +27°C° 1.2 mm 4 mps 750 mmHg 97%
    17:00 +27°C° 0.6 mm 4 mps 751 mmHg 97%
    18:00 +26°C° 0.6 mm 3 mps 751 mmHg 97%
    19:00 +26°C° 0.6 mm 2 mps 752 mmHg 97%
    20:00 +26°C° 0.1 mm 2 mps 753 mmHg 96%
    21:00 +26°C° 0.1 mm 2 mps 753 mmHg 96%
    22:00 +26°C° 0.1 mm 2 mps 753 mmHg 96%
    23:00 +26°C° 0.1 mm 1 mps 753 mmHg 96%

    Day after tomorrow, 20 November, Monday

    Time Temperature Precipitation Wind Pressure Humidity
    00:00 +25°C° 0.1 mm 1 mps 753 mmHg 96%
    01:00 +25°C° 0.1 mm 1 mps 753 mmHg 95%
    02:00 +25°C° 0 mm 1 mps 753 mmHg 95%
    03:00 +25°C° 0 mm 1 mps 752 mmHg 95%
    04:00 +25°C° 0 mm 1 mps 752 mmHg 95%
    05:00 +25°C° 0 mm 1 mps 753 mmHg 94%
    06:00 +26°C° 0 mm 1 mps 753 mmHg 93%
    07:00 +26°C° 0 mm 1 mps 754 mmHg 91%
    08:00 +28°C° 0 mm 1 mps 754 mmHg 82%
    09:00 +30°C° 0 mm 2 mps 754 mmHg 72%
    10:00 +32°C° 0 mm 2 mps 755 mmHg 62%
    11:00 +32°C° 0 mm 2 mps 754 mmHg 62%
    12:00 +32°C° 0 mm 2 mps 753 mmHg 62%
    13:00 +34°C° 0 mm 2 mps 752 mmHg 62%
    14:00 +33°C° 0 mm 3 mps 752 mmHg 67%
    15:00 +31°C° 0 mm 3 mps 752 mmHg 72%
    16:00 +30°C° 0 mm 3 mps 751 mmHg 77%
    17:00 +29°C° 0 mm 3 mps 752 mmHg 83%
    18:00 +28°C° 0 mm 3 mps 752 mmHg 88%
    19:00 +26°C° 0 mm 3 mps 753 mmHg 94%
    20:00 +26°C° 0 mm 3 mps 753 mmHg 94%
    21:00 +26°C° 0 mm 3 mps 754 mmHg 94%
    22:00 +26°C° 0 mm 4 mps 754 mmHg 94%
    23:00 +25°C° 0.1 mm 3 mps 754 mmHg 92%

    21 November, Tuesday

    Time Temperature Precipitation Wind Pressure Humidity
    00:00 +25°C° 0.1 mm 3 mps 753 mmHg 89%
    01:00 +25°C° 0.1 mm 3 mps 753 mmHg 86%
    02:00 +25°C° 0.1 mm 3 mps 753 mmHg 85%
    03:00 +25°C° 0.1 mm 3 mps 753 mmHg 83%
    04:00 +25°C° 0.1 mm 3 mps 752 mmHg 82%
    05:00 +26°C° 0 mm 3 mps 753 mmHg 82%
    06:00 +26°C° 0 mm 4 mps 753 mmHg 81%
    07:00 +27°C° 0 mm 4 mps 754 mmHg 81%
    08:00 +29°C° 0 mm 4 mps 754 mmHg 75%
    09:00 +30°C° 0 mm 4 mps 754 mmHg 69%
    10:00 +33°C° 0 mm 4 mps 754 mmHg 63%
    11:00 +33°C° 0.1 mm 4 mps 753 mmHg 63%
    12:00 +34°C° 0.1 mm 5 mps 753 mmHg 63%
    13:00 +34°C° 0.1 mm 5 mps 752 mmHg 62%
    14:00 +33°C° 0.2 mm 5 mps 751 mmHg 67%
    15:00 +32°C° 0.2 mm 5 mps 751 mmHg 71%
    16:00 +30°C° 0.2 mm 5 mps 751 mmHg 75%
    17:00 +29°C° 0.3 mm 5 mps 751 mmHg 81%
    18:00 +28°C° 0.3 mm 4 mps 752 mmHg 87%
    19:00 +27°C° 0.3 mm 4 mps 753 mmHg 92%
    20:00 +27°C° 0.1 mm 4 mps 753 mmHg 92%
    21:00 +26°C° 0.1 mm 4 mps 753 mmHg 92%
    22:00 +26°C° 0.1 mm 4 mps 754 mmHg 92%
    23:00 +26°C° 0.1 mm 3 mps 753 mmHg 91%

    22 November, Wednesday

    Time Temperature Precipitation Wind Pressure Humidity
    00:00 +26°C° 0.1 mm 3 mps 753 mmHg 90%
    01:00 +26°C° 0.1 mm 3 mps 752 mmHg 89%
    02:00 +26°C° 0.1 mm 3 mps 752 mmHg 89%
    03:00 +26°C° 0.1 mm 3 mps 752 mmHg 88%
    04:00 +25°C° 0.1 mm 3 mps 752 mmHg 88%
    05:00 +26°C° 0 mm 3 mps 752 mmHg 86%
    06:00 +27°C° 0 mm 4 mps 753 mmHg 84%
    07:00 +27°C° 0 mm 4 mps 753 mmHg 82%
    08:00 +29°C° 0 mm 4 mps 753 mmHg 75%
    09:00 +32°C° 0 mm 4 mps 753 mmHg 68%
    10:00 +34°C° 0 mm 4 mps 753 mmHg 60%
    11:00 +34°C° 0 mm 4 mps 753 mmHg 61%
    12:00 +34°C° 0 mm 4 mps 752 mmHg 61%
    13:00 +34°C° 0 mm 5 mps 751 mmHg 61%
    14:00 +33°C° 0 mm 5 mps 751 mmHg 66%
    15:00 +32°C° 0 mm 5 mps 751 mmHg 70%
    16:00 +32°C° 0 mm 5 mps 750 mmHg 75%
    17:00 +29°C° 0 mm 5 mps 751 mmHg 81%
    18:00 +28°C° 0 mm 4 mps 752 mmHg 87%
    19:00 +27°C° 0 mm 4 mps 753 mmHg 93%
    20:00 +26°C° 0 mm 4 mps 753 mmHg 93%
    21:00 +26°C° 0 mm 4 mps 753 mmHg 92%
    22:00 +26°C° 0 mm 4 mps 753 mmHg 91%
    23:00 +26°C° 0 mm 4 mps 753 mmHg 89%

    23 November, Thursday

    Time Temperature Precipitation Wind Pressure Humidity
    00:00 +26°C° 0 mm 4 mps 752 mmHg 86%
    01:00 +26°C° 0 mm 4 mps 752 mmHg 84%
    02:00 +26°C° 0 mm 4 mps 752 mmHg 83%
    03:00 +25°C° 0 mm 4 mps 752 mmHg 81%
    04:00 +25°C° 0 mm 4 mps 752 mmHg 80%
    05:00 +26°C° 0 mm 4 mps 752 mmHg 80%
    06:00 +26°C° 0 mm 4 mps 753 mmHg 80%
    07:00 +27°C° 0 mm 4 mps 753 mmHg 80%
    08:00 +28°C° 0 mm 5 mps 753 mmHg 75%
    09:00 +30°C° 0 mm 5 mps 753 mmHg 70%
    10:00 +33°C° 0 mm 5 mps 753 mmHg 65%
    11:00 +33°C° 0.1 mm 5 mps 753 mmHg 65%
    12:00 +33°C° 0.1 mm 5 mps 752 mmHg 65%
    13:00 +34°C° 0.1 mm 6 mps 751 mmHg 64%
    14:00 +33°C° 0.2 mm 6 mps 751 mmHg 69%
    15:00 +32°C° 0.2 mm 6 mps 751 mmHg 74%
    16:00 +30°C° 0.2 mm 6 mps 751 mmHg 79%
    17:00 +29°C° 0.3 mm 5 mps 752 mmHg 83%
    18:00 +28°C° 0.3 mm 5 mps 752 mmHg 87%
    19:00 +27°C° 0.3 mm 5 mps 753 mmHg 92%
    20:00 +27°C° 0.3 mm 5 mps 753 mmHg 92%
    21:00 +27°C° 0.3 mm 5 mps 753 mmHg 91%
    22:00 +27°C° 0.3 mm 5 mps 754 mmHg 91%
    23:00 +27°C° 0.1 mm 5 mps 753 mmHg 91%
    Show more